• En España
  • Lista de países
  • Para 7 días
  • Temperatura del agua
  • Mapa Satelital
  • El tiempo en el mapa
  • Informadores
  • user-avatar
    Iniciar sesión

    Tiempo cada hora Tyrgowishte

    Hoy, 23 Septiembre, Domingo

    Tiempo Temperatura Precipitaciones Viento Presión Humedad
    00:00 +21°C° 0 mm 1 mps 745 mmHg 56%
    01:00 +20°C° 0 mm 2 mps 745 mmHg 55%
    02:00 +19°C° 0 mm 2 mps 745 mmHg 55%
    03:00 +19°C° 0 mm 2 mps 745 mmHg 56%
    04:00 +19°C° 0 mm 2 mps 746 mmHg 58%
    05:00 +18°C° 0 mm 2 mps 746 mmHg 60%
    06:00 +19°C° 0 mm 2 mps 746 mmHg 59%
    07:00 +20°C° 0 mm 3 mps 746 mmHg 58%
    08:00 +21°C° 0 mm 3 mps 747 mmHg 57%
    09:00 +22°C° 0 mm 3 mps 747 mmHg 53%
    10:00 +25°C° 0 mm 3 mps 747 mmHg 48%
    11:00 +27°C° 0 mm 2 mps 748 mmHg 44%
    12:00 +28°C° 0 mm 2 mps 747 mmHg 41%
    13:00 +29°C° 0 mm 2 mps 747 mmHg 39%
    14:00 +30°C° 0 mm 2 mps 747 mmHg 36%
    15:00 +30°C° 0 mm 2 mps 747 mmHg 38%
    16:00 +29°C° 0 mm 2 mps 746 mmHg 40%
    17:00 +29°C° 0 mm 2 mps 746 mmHg 41%
    18:00 +27°C° 0 mm 2 mps 746 mmHg 49%
    19:00 +24°C° 0 mm 2 mps 746 mmHg 57%
    20:00 +22°C° 0 mm 1 mps 746 mmHg 64%
    21:00 +21°C° 0 mm 2 mps 746 mmHg 69%
    22:00 +20°C° 0 mm 2 mps 746 mmHg 73%
    23:00 +20°C° 0 mm 2 mps 746 mmHg 78%

    Mañana, 24 Septiembre, Lunes

    Tiempo Temperatura Precipitaciones Viento Presión Humedad
    00:00 +19°C° 0 mm 2 mps 746 mmHg 81%
    01:00 +19°C° 0 mm 2 mps 745 mmHg 83%
    02:00 +19°C° 0 mm 3 mps 745 mmHg 86%
    03:00 +19°C° 0 mm 3 mps 745 mmHg 86%
    04:00 +19°C° 0 mm 3 mps 744 mmHg 87%
    05:00 +19°C° 0 mm 3 mps 743 mmHg 87%
    06:00 +20°C° 0 mm 3 mps 743 mmHg 78%
    07:00 +22°C° 0 mm 4 mps 743 mmHg 68%
    08:00 +23°C° 0 mm 4 mps 743 mmHg 59%
    09:00 +27°C° 0 mm 5 mps 742 mmHg 50%
    10:00 +29°C° 0 mm 5 mps 742 mmHg 40%
    11:00 +33°C° 0 mm 5 mps 742 mmHg 31%
    12:00 +33°C° 0 mm 6 mps 741 mmHg 29%
    13:00 +34°C° 0 mm 6 mps 740 mmHg 27%
    14:00 +35°C° 0 mm 6 mps 740 mmHg 25%
    15:00 +34°C° 0 mm 6 mps 740 mmHg 29%
    16:00 +32°C° 0 mm 7 mps 740 mmHg 32%
    17:00 +30°C° 0 mm 7 mps 740 mmHg 36%
    18:00 +26°C° 0 mm 8 mps 741 mmHg 41%
    19:00 +22°C° 0 mm 9 mps 743 mmHg 46%
    20:00 +18°C° 0 mm 9 mps 744 mmHg 52%
    21:00 +17°C° 0 mm 9 mps 745 mmHg 54%
    22:00 +16°C° 0 mm 8 mps 746 mmHg 57%
    23:00 +15°C° 0 mm 7 mps 747 mmHg 60%

    Pasado mañana, 25 Septiembre, Martes

    Tiempo Temperatura Precipitaciones Viento Presión Humedad
    00:00 +14°C° 0.1 mm 6 mps 747 mmHg 61%
    01:00 +14°C° 0.1 mm 6 mps 747 mmHg 63%
    02:00 +13°C° 0.1 mm 5 mps 748 mmHg 64%
    03:00 +13°C° 0 mm 5 mps 748 mmHg 62%
    04:00 +13°C° 0 mm 5 mps 748 mmHg 61%
    05:00 +12°C° 0 mm 4 mps 748 mmHg 59%
    06:00 +12°C° 0 mm 5 mps 749 mmHg 57%
    07:00 +12°C° 0 mm 5 mps 749 mmHg 55%
    08:00 +11°C° 0 mm 6 mps 750 mmHg 53%
    09:00 +13°C° 0 mm 6 mps 750 mmHg 47%
    10:00 +15°C° 0 mm 6 mps 750 mmHg 41%
    11:00 +16°C° 0 mm 6 mps 750 mmHg 35%
    12:00 +17°C° 0 mm 6 mps 750 mmHg 32%
    13:00 +17°C° 0 mm 6 mps 750 mmHg 29%
    14:00 +19°C° 0 mm 6 mps 750 mmHg 25%
    15:00 +17°C° 0 mm 6 mps 750 mmHg 28%
    16:00 +16°C° 0 mm 5 mps 750 mmHg 30%
    17:00 +16°C° 0 mm 5 mps 751 mmHg 32%
    18:00 +14°C° 0 mm 5 mps 751 mmHg 37%
    19:00 +13°C° 0 mm 5 mps 752 mmHg 43%
    20:00 +10°C° 0 mm 5 mps 753 mmHg 48%
    21:00 +11°C° 0 mm 4 mps 753 mmHg 51%
    22:00 +10°C° 0 mm 3 mps 754 mmHg 54%
    23:00 +9°C° 0 mm 2 mps 754 mmHg 57%

    26 Septiembre, Miércoles

    Tiempo Temperatura Precipitaciones Viento Presión Humedad
    00:00 +9°C° 0 mm 2 mps 755 mmHg 58%
    01:00 +8°C° 0 mm 2 mps 755 mmHg 60%
    02:00 +7°C° 0 mm 2 mps 755 mmHg 61%
    03:00 +7°C° 0 mm 3 mps 755 mmHg 61%
    04:00 +7°C° 0 mm 3 mps 756 mmHg 61%
    05:00 +5°C° 0 mm 3 mps 756 mmHg 62%
    06:00 +6°C° 0 mm 4 mps 756 mmHg 58%
    07:00 +7°C° 0 mm 5 mps 756 mmHg 55%
    08:00 +8°C° 0 mm 6 mps 757 mmHg 52%
    09:00 +9°C° 0 mm 6 mps 757 mmHg 47%
    10:00 +11°C° 0 mm 6 mps 757 mmHg 42%
    11:00 +13°C° 0 mm 6 mps 757 mmHg 37%
    12:00 +14°C° 0 mm 6 mps 757 mmHg 35%
    13:00 +14°C° 0 mm 7 mps 756 mmHg 33%
    14:00 +15°C° 0 mm 7 mps 756 mmHg 32%
    15:00 +14°C° 0 mm 6 mps 756 mmHg 32%
    16:00 +14°C° 0 mm 6 mps 756 mmHg 32%
    17:00 +13°C° 0 mm 6 mps 756 mmHg 32%
    18:00 +12°C° 0 mm 5 mps 756 mmHg 35%
    19:00 +10°C° 0 mm 4 mps 756 mmHg 37%
    20:00 +9°C° 0 mm 3 mps 756 mmHg 40%
    21:00 +8°C° 0 mm 3 mps 756 mmHg 42%
    22:00 +7°C° 0 mm 3 mps 756 mmHg 44%
    23:00 +6°C° 0 mm 2 mps 756 mmHg 46%

    27 Septiembre, Jueves

    Tiempo Temperatura Precipitaciones Viento Presión Humedad
    00:00 +6°C° 0 mm 2 mps 756 mmHg 48%
    01:00 +6°C° 0 mm 2 mps 756 mmHg 50%
    02:00 +5°C° 0 mm 2 mps 756 mmHg 51%
    03:00 +5°C° 0 mm 2 mps 755 mmHg 52%
    04:00 +5°C° 0 mm 2 mps 755 mmHg 53%
    05:00 +4°C° 0 mm 2 mps 755 mmHg 54%
    06:00 +6°C° 0 mm 2 mps 755 mmHg 50%
    07:00 +7°C° 0 mm 3 mps 755 mmHg 46%
    08:00 +8°C° 0 mm 3 mps 755 mmHg 43%
    09:00 +10°C° 0 mm 4 mps 755 mmHg 38%
    10:00 +12°C° 0 mm 4 mps 755 mmHg 34%
    11:00 +14°C° 0 mm 4 mps 754 mmHg 30%
    12:00 +15°C° 0 mm 4 mps 754 mmHg 27%
    13:00 +17°C° 0 mm 4 mps 753 mmHg 25%
    14:00 +18°C° 0 mm 4 mps 752 mmHg 23%
    15:00 +18°C° 0 mm 4 mps 752 mmHg 24%
    16:00 +17°C° 0 mm 4 mps 752 mmHg 25%
    17:00 +17°C° 0 mm 3 mps 751 mmHg 26%
    18:00 +15°C° 0 mm 2 mps 751 mmHg 29%
    19:00 +13°C° 0 mm 2 mps 752 mmHg 33%
    20:00 +11°C° 0 mm 1 mps 752 mmHg 37%
    21:00 +11°C° 0 mm 1 mps 752 mmHg 38%
    22:00 +10°C° 0 mm 1 mps 752 mmHg 39%
    23:00 +10°C° 0 mm 1 mps 751 mmHg 40%

    28 Septiembre, Viernes

    Tiempo Temperatura Precipitaciones Viento Presión Humedad
    00:00 +10°C° 0 mm 1 mps 751 mmHg 40%
    01:00 +9°C° 0 mm 1 mps 751 mmHg 41%
    02:00 +9°C° 0 mm 1 mps 751 mmHg 41%
    03:00 +9°C° 0 mm 1 mps 751 mmHg 41%
    04:00 +9°C° 0 mm 1 mps 750 mmHg 41%
    05:00 +9°C° 0 mm 1 mps 750 mmHg 41%
    06:00 +10°C° 0 mm 1 mps 750 mmHg 38%
    07:00 +12°C° 0 mm 1 mps 750 mmHg 36%
    08:00 +13°C° 0 mm 1 mps 750 mmHg 33%
    09:00 +15°C° 0 mm 2 mps 750 mmHg 31%
    10:00 +17°C° 0 mm 3 mps 750 mmHg 30%
    11:00 +20°C° 0 mm 3 mps 750 mmHg 28%
    12:00 +21°C° 0 mm 4 mps 749 mmHg 28%
    13:00 +22°C° 0 mm 4 mps 749 mmHg 29%
    14:00 +22°C° 0 mm 4 mps 748 mmHg 29%
    15:00 +22°C° 0 mm 4 mps 748 mmHg 32%
    16:00 +21°C° 0 mm 3 mps 747 mmHg 35%
    17:00 +21°C° 0 mm 3 mps 747 mmHg 39%
    18:00 +19°C° 0 mm 3 mps 747 mmHg 47%
    19:00 +17°C° 0 mm 2 mps 747 mmHg 55%
    20:00 +15°C° 0 mm 2 mps 747 mmHg 63%
    21:00 +14°C° 0 mm 1 mps 747 mmHg 68%
    22:00 +14°C° 0 mm 1 mps 747 mmHg 72%
    23:00 +13°C° 0 mm 1 mps 746 mmHg 77%
    Mostrar más